Tracking 20942 objects as of 15-Jul-2020
HD Live streaming from Space Station
objects crossing your sky now

IRIDIUM 33 DEB

Track IRIDIUM 33 DEB now!
10-day predictions


NORAD ID: 35050
Int'l Code: 1997-051NW
Perigee: 611.6 km
Apogee: 645.6 km
Inclination: 86.3 °
Period: 97.1 minutes
Semi major axis: 6999 km
RCS: 0.0039 m2 (small)
Launch date: September 14, 1997
Source: United States (US)
Launch site: TYURATAM MISSILE AND SPACE COMPLEX (TTMTR)

Note: This is SATELLITE DEBRIS
aabbcc
Your satellite tracking list
Your tracking list is empty




NASA's NSSDC Master Catalog

Two Line Element Set (TLE):
1 35050U 97051NW  20196.91915718 +.00002698 +00000-0 +33116-3 0  9996
2 35050 086.3014 074.3380 0024234 122.8166 237.5395 14.82497663596771
Source of the keplerian elements: AFSPC